Weather History for Kecskemet, Hungary

Change the Weather History Date:

Thursday, December 26, 2013

  Actual Average (LHBP) Record (LHBP)
Temperature  
Mean Temperature 44 °F -  
Max Temperature 53 °F 32 °F 48 °F (2013)
Min Temperature 36 °F 21 °F 10 °F (1996)
Degree Days  
Heating Degree Days 20    
Moisture  
Dew Point 36 °F    
Average Humidity 66    
Maximum Humidity 87    
Minimum Humidity 45    
Precipitation  
Precipitation 0.01 in - - ()
Sea Level Pressure  
Sea Level Pressure 29.69 in    
Wind  
Wind Speed 10 mph ()    
Max Wind Speed 20 mph    
Max Gust Speed 27 mph    
Visibility 8.0 miles    
Events Rain    
Averages and records for this station are not official NWS values.
T = Trace of Precipitation, MM = Missing Value Source: Averaged Metar Reports

Daily Weather History Graph

Daily Weather History Graph

Search for Another Location

Airport:

Trip Planner

Search our weather history database for the weather conditions in past years. The results will help you decide how hot, cold, wet, or windy it might be!

Date:

Astronomy

Dec. 26, 2013 Rise Set
Actual Time 7:25 AM CET 3:57 PM CET
Civil Twilight 6:50 AM CET 4:33 PM CET
Nautical Twilight 6:11 AM CET 5:11 PM CET
Astronomical Twilight 5:34 AM CET 5:48 PM CET
Moon 12:16 AM CET (12/26) 11:40 AM CET (12/26)
Length of Visible Light 9h 43m
Length of Day
8h 32m
Last Quarter, 41% of the Moon is Illuminated
Dec 26
Last Quarter
Jan 1
New
Jan 8
First Quarter
Jan 16
Full
Jan 24
Last Quarter

Hourly Weather History & Observations

Time (CET) Temp. Windchill Dew Point Humidity Pressure Visibility Wind Dir Wind Speed Gust Speed Precip Events Conditions
12:00 AM 38 °F - 34 °F 79% 29.83 in 6 mi SSE 6.7 mph - -   Scattered Clouds
12:15 AM 39.2 °F 33.1 °F 33.8 °F 81% 29.80 in - SSE 8.9 mph - N/A   Clear
12:45 AM 37.4 °F 30.9 °F 33.8 °F 87% 29.80 in - SSE 8.9 mph - N/A   Clear
1:15 AM 39.2 °F 33.1 °F 33.8 °F 81% 29.80 in - SSE 8.9 mph - N/A   Clear
1:45 AM 39.2 °F 33.1 °F 33.8 °F 81% 29.80 in - SSE 8.9 mph - N/A   Clear
2:00 AM 38 °F - 34 °F 79% 29.82 in 6 mi SSE 8.9 mph - -   Clear
2:15 AM 37.4 °F 30.9 °F 33.8 °F 87% 29.77 in - SSE 8.9 mph - N/A   Clear
2:45 AM 37.4 °F 30.9 °F 33.8 °F 87% 29.77 in - SSE 8.9 mph - N/A   Clear
3:00 AM 37 °F - 34 °F 83% 29.81 in 6 mi SSE 8.9 mph - -   Clear
3:15 AM 37.4 °F 30.9 °F 33.8 °F 87% 29.77 in - SSE 8.9 mph - N/A   Clear
3:45 AM 37.4 °F 30.9 °F 33.8 °F 87% 29.74 in - SSE 8.9 mph - N/A   Clear
4:00 AM 38 °F - 34 °F 79% 29.78 in 6 mi SSE 8.9 mph - -   Clear
4:15 AM 37.4 °F 30.9 °F 33.8 °F 87% 29.74 in - SSE 8.9 mph - N/A   Clear
4:45 AM 37.4 °F 30.9 °F 33.8 °F 87% 29.74 in - SSE 8.9 mph - N/A   Clear
5:00 AM 38 °F - 33 °F 76% 29.77 in 6 mi SSE 8.9 mph - -   Clear
5:15 AM 37.4 °F 30.9 °F 33.8 °F 87% 29.74 in - SSE 8.9 mph - N/A   Clear
5:45 AM - - - N/A% - - SSE 11.2 mph - N/A   Clear
6:00 AM 38 °F - 34 °F 78% 29.76 in 6 mi SSE 8.9 mph - -   Clear
6:15 AM 39.2 °F 32.2 °F 33.8 °F 81% 29.71 in - SSE 11.2 mph - N/A   Clear
6:45 AM 39.2 °F 32.2 °F 33.8 °F 81% 29.71 in - SSE 11.2 mph - N/A   Clear
7:00 AM 39 °F - 34 °F 74% 29.74 in 6 mi SSE 11.2 mph - -   Clear
7:15 AM 39.2 °F 32.2 °F 33.8 °F 81% 29.71 in - SSE 11.2 mph - N/A   Clear
7:45 AM 41.0 °F 35.4 °F 33.8 °F 76% 29.71 in - SSE 8.9 mph - N/A   Clear
8:00 AM 40 °F - 34 °F 72% 29.73 in 9 mi SSE 8.9 mph - -   Scattered Clouds
8:15 AM 41.0 °F 34.4 °F 35.6 °F 81% 29.71 in - SSE 11.2 mph - N/A   Clear
8:45 AM - - - N/A% - - SSE 13.4 mph - N/A   Clear
9:00 AM 42 °F - 35 °F 70% 29.73 in 9 mi SSE 11.2 mph - -   Partly Cloudy
9:15 AM 42.8 °F 36.7 °F 35.6 °F 76% 29.71 in - SSE 11.2 mph - N/A   Clear
9:45 AM 46.4 °F 40.5 °F 37.4 °F 71% 29.71 in - SSE 13.4 mph - N/A   Clear
10:00 AM 46 °F - 37 °F 60% 29.72 in 11 mi SSE 13.4 mph - -   Partly Cloudy
10:15 AM 48.2 °F - 37.4 °F 66% 29.68 in - SSE 15.7 mph - N/A   Clear
10:44 AM 50.0 °F - 37.4 °F 62% 29.68 in - SSE 15.7 mph 26.8 mph N/A   Clear
10:45 AM 50.0 °F - 37.4 °F 62% 29.68 in - SSE 17.9 mph - N/A   Clear
11:00 AM 50 °F - 37 °F 50% 29.69 in 12 mi SSE 17.9 mph - -   Partly Cloudy
11:15 AM 50.0 °F - 37.4 °F 62% 29.65 in - SSE 20.1 mph - N/A   Clear
11:45 AM - - - N/A% - - SSE 13.4 mph - N/A   Clear
12:00 PM 51 °F - 37 °F 49% 29.68 in 12 mi SSE 13.4 mph - -   Mostly Cloudy
12:15 PM 51.8 °F - 37.4 °F 58% 29.65 in - SSE 11.2 mph - N/A   Clear
12:45 PM 51.8 °F - 39.2 °F 62% 29.62 in - SSE 8.9 mph - N/A   Clear
1:00 PM 53 °F - 39 °F 47% 29.65 in 12 mi SSE 8.9 mph - -   Partly Cloudy
1:15 PM 53.6 °F - 39.2 °F 58% 29.62 in - SSE 11.2 mph - N/A   Clear
1:45 PM 53.6 °F - 37.4 °F 54% 29.62 in - SSE 13.4 mph - N/A   Clear
2:00 PM 53 °F - 38 °F 45% 29.65 in 12 mi SSE 13.4 mph - -   Mostly Cloudy
2:15 PM 51.8 °F - 37.4 °F 58% 29.62 in - SSE 13.4 mph - N/A   Clear
2:45 PM - - - N/A% - 5.0 mi SSE 13.4 mph - N/A Rain Light Rain
3:00 PM 52 °F - 38 °F 47% 29.64 in 12 mi SSE 11.2 mph - -   Mostly Cloudy
3:15 PM 51.8 °F - 37.4 °F 58% 29.62 in - SSE 13.4 mph - N/A   Clear
3:45 PM 50.0 °F - 37.4 °F 62% 29.62 in - SSE 8.9 mph - N/A   Clear
4:00 PM 50 °F - 37 °F 51% 29.63 in 12 mi SSE 8.9 mph - -   Mostly Cloudy
4:15 PM 50.0 °F - 37.4 °F 62% 29.62 in - SSE 11.2 mph - N/A   Clear
4:45 PM 50.0 °F - 37.4 °F 62% 29.62 in - SSE 11.2 mph - N/A   Clear
5:00 PM 50 °F - 37 °F 51% 29.63 in 11 mi SSE 11.2 mph - -   Overcast
5:10 PM 51.8 °F - 37.4 °F 58% 29.62 in 6.2 mi SSE 11.2 mph - N/A Rain Light Rain
5:15 PM 51.8 °F - 37.4 °F 58% 29.62 in 6.2 mi SSE 13.4 mph - N/A Rain Light Rain
5:45 PM - - - N/A% - 5.0 mi SSE 11.2 mph - N/A Rain Light Rain
6:00 PM 51 °F - 38 °F 50% 29.64 in 9 mi SE 11.2 mph - - Rain Light Rain
6:09 PM 51.8 °F - 37.4 °F 58% 29.62 in - SSE 11.2 mph - N/A   Clear
6:15 PM 51.8 °F - 37.4 °F 58% 29.62 in - SSE 11.2 mph - N/A   Clear
6:45 PM 51.8 °F - 37.4 °F 58% 29.62 in - SSE 15.7 mph - N/A   Clear
7:00 PM 52 °F - 37 °F 46% 29.64 in 12 mi SSE 15.7 mph - - Rain Light Rain
7:15 PM 51.8 °F - 37.4 °F 58% 29.62 in - SSE 15.7 mph - N/A   Clear
7:19 PM 51.8 °F - 37.4 °F 58% 29.62 in 6.2 mi SSE 15.7 mph - N/A Rain Light Rain
7:45 PM 51.8 °F - 37.4 °F 58% 29.62 in 6.2 mi SSE 15.7 mph - N/A Rain Light Rain
8:00 PM 52 °F - 38 °F 47% 29.64 in 12 mi SSE 15.7 mph - - Rain Light Rain
8:15 PM 51.8 °F - 37.4 °F 58% 29.62 in - SSE 13.4 mph - N/A   Clear
8:45 PM - - - N/A% - 5.0 mi SSE 11.2 mph - N/A Rain Light Rain
9:00 PM 52 °F - 37 °F 46% 29.65 in 12 mi SSE 11.2 mph - - Rain Light Rain
9:15 PM 50.0 °F - 37.4 °F 62% 29.65 in 6.2 mi SSE 11.2 mph - N/A Rain Light Rain
9:45 PM 51.8 °F - 37.4 °F 58% 29.65 in 6.2 mi SSE 13.4 mph - N/A Rain Light Rain
10:00 PM 51 °F - 38 °F 50% 29.67 in 9 mi SSE 13.4 mph - - Rain Light Rain
10:15 PM 50.0 °F - 39.2 °F 66% 29.65 in 6.2 mi SSE 11.2 mph - N/A Rain Light Rain
10:45 PM 51.8 °F - 37.4 °F 58% 29.68 in 6.2 mi SSE 11.2 mph - N/A Rain Light Rain
11:00 PM 51 °F - 38 °F 49% 29.69 in 9 mi SSE 11.2 mph - - Rain Light Rain
11:15 PM 50.0 °F - 37.4 °F 62% 29.68 in 6.2 mi SSE 11.2 mph - N/A Rain Light Rain
11:45 PM - - - N/A% - 1.7 mi North - - N/A Rain Light Rain